"Sample Date","Sample Time","Sample Value","Units","Flow Rate","Number Channels","Micron Size 0","Counts/Channel 0","Micron Size 1","Counts/Channel 1","Micron Size 2","Counts/Channel 2","Micron Size 3","Counts/Channel 3","Micron Size 4","Counts/Channel 4","Micron Size 5","Counts/Channel 5","Micron Size 6","Counts/Channel 6","Micron Size 7","Counts/Channel 7","Micron Size 8","Counts/Channel 8","Micron Size 9","Counts/Channel 9","Micron Size 10","Counts/Channel 10","Micron Size 11","Counts/Channel 11","Micron Size 12","Counts/Channel 12","Micron Size 13","Counts/Channel 13","Micron Size 14","Counts/Channel 14","Micron Size 15","Counts/Channel 15","Micron Size 16","Counts/Channel 16","Micron Size 17","Counts/Channel 17","Micron Size 18","Counts/Channel 18","Micron Size 19","Counts/Channel 19","Micron Size 20","Counts/Channel 20","Micron Size 21","Counts/Channel 21","Micron Size 22","Counts/Channel 22","Micron Size 23","Counts/Channel 23","Micron Size 24","Counts/Channel 24","Micron Size 25","Counts/Channel 25","Micron Size 26","Counts/Channel 26","Micron Size 27","Counts/Channel 27","Micron Size 28","Counts/Channel 28","Micron Size 29","Counts/Channel 29","Micron Size 30","Counts/Channel 30","Micron Size 31","Counts/Channel 31"
"05/06/08","09:00:04",20.000,"cc",27994.926,6,0.100,14.000,0.200,6.000,0.300,0,0.500,0,1.000,0,5.000,0
"05/06/08","09:00:10",18.000,"cc",28045.223,6,0.100,15.000,0.200,3.000,0.300,0,0.500,0,1.000,0,5.000,0
"05/06/08","09:00:16",12.000,"cc",28013.816,6,0.100,9.000,0.200,2.000,0.300,1.000,0.500,0,1.000,0,5.000,0
"05/06/08","09:00:22",16.000,"cc",28067.479,6,0.100,15.000,0.200,1.000,0.300,0,0.500,0,1.000,0,5.000,0
"05/06/08","09:00:28",25.000,"cc",28080.221,6,0.100,22.000,0.200,3.000,0.300,0,0.500,0,1.000,0,5.000,0
"05/06/08","09:00:34",13.000,"cc",28049.066,6,0.100,11.000,0.200,2.000,0.300,0,0.500,0,1.000,0,5.000,0
"05/06/08","09:00:40",18.000,"cc",28133.057,6,0.100,18.000,0.200,0,0.300,0,0.500,0,1.000,0,5.000,0
"05/06/08","09:00:46",21.000,"cc",28072.492,6,0.100,20.000,0.200,1.000,0.300,0,0.500,0,1.000,0,5.000,0
"05/06/08","09:00:52",17.000,"cc",28113.535,6,0.100,14.000,0.200,3.000,0.300,0,0.500,0,1.000,0,5.000,0
"05/06/08","09:00:58",9.000,"cc",28100.648,6,0.100,9.000,0.200,0,0.300,0,0.500,0,1.000,0,5.000,0
"05/06/08","09:01:04",19.000,"cc",28104.402,6,0.100,15.000,0.200,4.000,0.300,0,0.500,0,1.000,0,5.000,0
"05/06/08","09:01:10",17.000,"cc",28097.826,6,0.100,16.000,0.200,1.000,0.300,0,0.500,0,1.000,0,5.000,0
"05/06/08","09:01:16",30.000,"cc",28162.143,6,0.100,27.000,0.200,3.000,0.300,0,0.500,0,1.000,0,5.000,0
"05/06/08","09:01:22",17.000,"cc",28103.357,6,0.100,16.000,0.200,1.000,0.300,0,0.500,0,1.000,0,5.000,0
"05/06/08","09:01:28",23.000,"cc",28080.793,6,0.100,22.000,0.200,1.000,0.300,0,0.500,0,1.000,0,5.000,0
"05/06/08","09:01:34",24.000,"cc",28014.965,6,0.100,20.000,0.200,4.000,0.300,0,0.500,0,1.000,0,5.000,0
"05/06/08","09:01:40",27.000,"cc",28052.574,6,0.100,24.000,0.200,3.000,0.300,0,0.500,0,1.000,0,5.000,0
"05/06/08","09:01:46",24.000,"cc",28098.805,6,0.100,21.000,0.200,3.000,0.300,0,0.500,0,1.000,0,5.000,0
"05/06/08","09:01:52",28.000,"cc",27999.777,6,0.100,24.000,0.200,4.000,0.300,0,0.500,0,1.000,0,5.000,0
"05/06/08","09:01:58",15.000,"cc",28095.213,6,0.100,15.000,0.200,0,0.300,0,0.500,0,1.000,0,5.000,0
"05/06/08","09:02:04",34.000,"cc",28135.121,6,0.100,33.000,0.200,1.000,0.300,0,0.500,0,1.000,0,5.000,0
"05/06/08","09:02:10",27.000,"cc",28077.004,6,0.100,25.000,0.200,2.000,0.300,0,0.500,0,1.000,0,5.000,0
"05/06/08","09:02:16",14.000,"cc",28068.190,6,0.100,13.000,0.200,1.000,0.300,0,0.500,0,1.000,0,5.000,0
"05/06/08","09:02:22",23.000,"cc",27965.682,6,0.100,20.000,0.200,2.000,0.300,1.000,0.500,0,1.000,0,5.000,0
"05/06/08","09:02:28",26.000,"cc",27993.445,6,0.100,21.000,0.200,4.000,0.300,1.000,0.500,0,1.000,0,5.000,0
"05/06/08","09:02:34",8.000,"cc",27992.297,6,0.100,7.000,0.200,0,0.300,1.000,0.500,0,1.000,0,5.000,0
"05/06/08","09:02:40",26.000,"cc",28088.168,6,0.100,19.000,0.200,5.000,0.300,2.000,0.500,0,1.000,0,5.000,0
"05/06/08","09:02:46",23.000,"cc",28029.436,6,0.100,21.000,0.200,2.000,0.300,0,0.500,0,1.000,0,5.000,0
"05/06/08","09:02:52",16.000,"cc",28023.668,6,0.100,14.000,0.200,2.000,0.300,0,0.500,0,1.000,0,5.000,0
"05/06/08","09:02:58",29.000,"cc",28059.279,6,0.100,14.000,0.200,4.000,0.300,0,0.500,3.000,1.000,8.000,5.000,0
"05/06/08","09:03:04",20.000,"cc",27982.229,6,0.100,18.000,0.200,1.000,0.300,1.000,0.500,0,1.000,0,5.000,0
"05/06/08","09:03:10",125.000,"cc",28064.315,6,0.100,39.000,0.200,18.000,0.300,10.000,0.500,17.000,1.000,37.000,5.000,4.000
"05/06/08","09:03:16",23.000,"cc",28179.402,6,0.100,19.000,0.200,2.000,0.300,0,0.500,1.000,1.000,0,5.000,1.000
"05/06/08","09:03:22",284.000,"cc",28033.002,6,0.100,105.000,0.200,33.000,0.300,28.000,0.500,29.000,1.000,84.000,5.000,5.000
"05/06/08","09:03:28",75.000,"cc",27978.934,6,0.100,37.000,0.200,9.000,0.300,6.000,0.500,10.000,1.000,12.000,5.000,1.000
"05/06/08","09:03:34",17.000,"cc",27958.670,6,0.100,15.000,0.200,0,0.300,2.000,0.500,0,1.000,0,5.000,0
"05/06/08","09:03:40",21.000,"cc",27976.940,6,0.100,18.000,0.200,1.000,0.300,2.000,0.500,0,1.000,0,5.000,0
"05/06/08","09:03:46",68.000,"cc",28043.336,6,0.100,35.000,0.200,7.000,0.300,3.000,0.500,5.000,1.000,18.000,5.000,0
"05/06/08","09:03:52",22.000,"cc",28039.703,6,0.100,20.000,0.200,2.000,0.300,0,0.500,0,1.000,0,5.000,0
"05/06/08","09:03:58",94.000,"cc",28034.623,6,0.100,42.000,0.200,8.000,0.300,16.000,0.500,5.000,1.000,21.000,5.000,2.000
"05/06/08","09:04:04",77.000,"cc",28011.516,6,0.100,33.000,0.200,7.000,0.300,3.000,0.500,8.000,1.000,25.000,5.000,1.000
"05/06/08","09:04:10",217.000,"cc",28014.723,6,0.100,82.000,0.200,18.000,0.300,24.000,0.500,29.000,1.000,64.000,5.000,0
"05/06/08","09:04:16",131.000,"cc",27945.676,6,0.100,55.000,0.200,18.000,0.300,14.000,0.500,12.000,1.000,32.000,5.000,0
"05/06/08","09:04:22",30.000,"cc",27928.391,6,0.100,24.000,0.200,3.000,0.300,0,0.500,3.000,1.000,0,5.000,0
"05/06/08","09:04:28",37.000,"cc",28081.316,6,0.100,30.000,0.200,5.000,0.300,0,0.500,0,1.000,2.000,5.000,0
"05/06/08","09:04:34",23.000,"cc",28030.463,6,0.100,17.000,0.200,4.000,0.300,1.000,0.500,0,1.000,1.000,5.000,0
"05/06/08","09:04:40",162.000,"cc",27990.717,6,0.100,55.000,0.200,21.000,0.300,16.000,0.500,29.000,1.000,39.000,5.000,2.000
"05/06/08","09:04:46",197.000,"cc",28005.031,6,0.100,81.000,0.200,22.000,0.300,15.000,0.500,18.000,1.000,59.000,5.000,2.000
"05/06/08","09:04:52",127.000,"cc",28013.615,6,0.100,56.000,0.200,9.000,0.300,18.000,0.500,12.000,1.000,32.000,5.000,0
"05/06/08","09:04:58",30.000,"cc",28038.094,6,0.100,23.000,0.200,5.000,0.300,0,0.500,0,1.000,2.000,5.000,0
"05/06/08","09:05:04",12.000,"cc",28069.684,6,0.100,10.000,0.200,1.000,0.300,0,0.500,0,1.000,1.000,5.000,0
"05/06/08","09:05:10",23.000,"cc",28093.805,6,0.100,15.000,0.200,3.000,0.300,0,0.500,2.000,1.000,3.000,5.000,0
"05/06/08","09:05:16",25.000,"cc",28048.414,6,0.100,21.000,0.200,4.000,0.300,0,0.500,0,1.000,0,5.000,0
"05/06/08","09:05:22",37.000,"cc",27983.240,6,0.100,29.000,0.200,2.000,0.300,4.000,0.500,1.000,1.000,1.000,5.000,0
"05/06/08","09:05:28",27.000,"cc",28063.113,6,0.100,22.000,0.200,5.000,0.300,0,0.500,0,1.000,0,5.000,0
"05/06/08","09:05:34",34.000,"cc",28075.080,6,0.100,24.000,0.200,5.000,0.300,0,0.500,2.000,1.000,3.000,5.000,0
"05/06/08","09:05:40",20.000,"cc",27969.568,6,0.100,12.000,0.200,3.000,0.300,1.000,0.500,1.000,1.000,3.000,5.000,0
"05/06/08","09:05:46",19.000,"cc",27992.879,6,0.100,19.000,0.200,0,0.300,0,0.500,0,1.000,0,5.000,0
"05/06/08","09:05:52",29.000,"cc",28017.477,6,0.100,21.000,0.200,8.000,0.300,0,0.500,0,1.000,0,5.000,0
"05/06/08","09:05:58",31.000,"cc",28125.063,6,0.100,22.000,0.200,6.000,0.300,0,0.500,0,1.000,3.000,5.000,0
"05/06/08","09:06:04",9.000,"cc",28155.682,6,0.100,8.000,0.200,1.000,0.300,0,0.500,0,1.000,0,5.000,0
"05/06/08","09:06:10",18.000,"cc",28092.797,6,0.100,17.000,0.200,1.000,0.300,0,0.500,0,1.000,0,5.000,0
"05/06/08","09:06:16",14.000,"cc",28038.365,6,0.100,11.000,0.200,3.000,0.300,0,0.500,0,1.000,0,5.000,0
"05/06/08","09:06:22",15.000,"cc",28017.975,6,0.100,14.000,0.200,1.000,0.300,0,0.500,0,1.000,0,5.000,0
"05/06/08","09:06:28",14.000,"cc",27951.281,6,0.100,14.000,0.200,0,0.300,0,0.500,0,1.000,0,5.000,0
"05/06/08","09:06:34",18.000,"cc",27920.022,6,0.100,15.000,0.200,3.000,0.300,0,0.500,0,1.000,0,5.000,0
"05/06/08","09:06:40",18.000,"cc",28040.734,6,0.100,16.000,0.200,2.000,0.300,0,0.500,0,1.000,0,5.000,0
"05/06/08","09:06:46",16.000,"cc",27906.750,6,0.100,13.000,0.200,3.000,0.300,0,0.500,0,1.000,0,5.000,0
"05/06/08","09:06:52",13.000,"cc",27974.623,6,0.100,9.000,0.200,3.000,0.300,0,0.500,1.000,1.000,0,5.000,0
"05/06/08","09:06:58",18.000,"cc",28070.051,6,0.100,15.000,0.200,3.000,0.300,0,0.500,0,1.000,0,5.000,0
"05/06/08","09:07:04",15.000,"cc",28046.000,6,0.100,13.000,0.200,1.000,0.300,0,0.500,1.000,1.000,0,5.000,0
"05/06/08","09:07:10",22.000,"cc",28045.402,6,0.100,20.000,0.200,2.000,0.300,0,0.500,0,1.000,0,5.000,0
"05/06/08","09:07:16",30.000,"cc",28073.313,6,0.100,22.000,0.200,8.000,0.300,0,0.500,0,1.000,0,5.000,0
"05/06/08","09:07:22",24.000,"cc",28131.293,6,0.100,19.000,0.200,5.000,0.300,0,0.500,0,1.000,0,5.000,0
"05/06/08","09:07:28",16.000,"cc",28145.873,6,0.100,13.000,0.200,3.000,0.300,0,0.500,0,1.000,0,5.000,0
"05/06/08","09:07:34",24.000,"cc",28135.799,6,0.100,22.000,0.200,2.000,0.300,0,0.500,0,1.000,0,5.000,0
"05/06/08","09:07:40",24.000,"cc",28081.732,6,0.100,21.000,0.200,3.000,0.300,0,0.500,0,1.000,0,5.000,0
"05/06/08","09:07:46",13.000,"cc",27998.758,6,0.100,13.000,0.200,0,0.300,0,0.500,0,1.000,0,5.000,0
"05/06/08","09:07:52",20.000,"cc",28044.977,6,0.100,18.000,0.200,2.000,0.300,0,0.500,0,1.000,0,5.000,0
"05/06/08","09:07:58",31.000,"cc",28213.834,6,0.100,24.000,0.200,7.000,0.300,0,0.500,0,1.000,0,5.000,0
"05/06/08","09:08:04",41.000,"cc",28142.750,6,0.100,21.000,0.200,8.000,0.300,3.000,0.500,1.000,1.000,6.000,5.000,2.000
"05/06/08","09:08:10",27.000,"cc",28049.857,6,0.100,22.000,0.200,4.000,0.300,1.000,0.500,0,1.000,0,5.000,0
"05/06/08","09:08:16",17.000,"cc",28133.131,6,0.100,17.000,0.200,0,0.300,0,0.500,0,1.000,0,5.000,0
"05/06/08","09:08:22",234.000,"cc",28158.988,6,0.100,93.000,0.200,31.000,0.300,18.000,0.500,33.000,1.000,58.000,5.000,1.000
"05/06/08","09:08:28",3138.000,"cc",27115.799,6,0.100,2108.000,0.200,628.000,0.300,248.000,0.500,105.000,1.000,24.000,5.000,25.000
"05/06/08","09:08:34",170.000,"cc",27173.967,6,0.100,116.000,0.200,37.000,0.300,11.000,0.500,4.000,1.000,2.000,5.000,0
"05/06/08","09:08:40",46.000,"cc",27996.545,6,0.100,37.000,0.200,8.000,0.300,0,0.500,1.000,1.000,0,5.000,0
"05/06/08","09:08:46",26.000,"cc",28094.098,6,0.100,21.000,0.200,4.000,0.300,1.000,0.500,0,1.000,0,5.000,0
"05/06/08","09:08:52",32.000,"cc",28107.770,6,0.100,28.000,0.200,3.000,0.300,0,0.500,1.000,1.000,0,5.000,0
"05/06/08","09:08:58",26.000,"cc",28099.156,6,0.100,24.000,0.200,2.000,0.300,0,0.500,0,1.000,0,5.000,0
"05/06/08","09:09:04",26.000,"cc",28042.682,6,0.100,21.000,0.200,5.000,0.300,0,0.500,0,1.000,0,5.000,0
"05/06/08","09:09:10",22.000,"cc",28000.941,6,0.100,20.000,0.200,1.000,0.300,0,0.500,0,1.000,1.000,5.000,0
"05/06/08","09:09:16",28.000,"cc",28093.926,6,0.100,21.000,0.200,6.000,0.300,1.000,0.500,0,1.000,0,5.000,0
"05/06/08","09:09:22",17.000,"cc",28055.367,6,0.100,15.000,0.200,2.000,0.300,0,0.500,0,1.000,0,5.000,0
"05/06/08","09:09:28",17.000,"cc",28104.955,6,0.100,13.000,0.200,4.000,0.300,0,0.500,0,1.000,0,5.000,0
"05/06/08","09:09:34",17.000,"cc",28147.440,6,0.100,16.000,0.200,1.000,0.300,0,0.500,0,1.000,0,5.000,0
"05/06/08","09:09:40",20.000,"cc",28127.930,6,0.100,19.000,0.200,1.000,0.300,0,0.500,0,1.000,0,5.000,0
"05/06/08","09:09:46",24.000,"cc",28057.199,6,0.100,22.000,0.200,2.000,0.300,0,0.500,0,1.000,0,5.000,0
"05/06/08","09:09:52",18.000,"cc",28014.215,6,0.100,15.000,0.200,3.000,0.300,0,0.500,0,1.000,0,5.000,0
"05/06/08","09:09:58",10.000,"cc",28109.811,6,0.100,9.000,0.200,1.000,0.300,0,0.500,0,1.000,0,5.000,0
"05/06/08","09:10:04",21.000,"cc",28080.191,6,0.100,18.000,0.200,3.000,0.300,0,0.500,0,1.000,0,5.000,0
"05/06/08","09:10:10",19.000,"cc",28158.590,6,0.100,15.000,0.200,4.000,0.300,0,0.500,0,1.000,0,5.000,0
"05/06/08","09:10:16",21.000,"cc",28117.877,6,0.100,16.000,0.200,5.000,0.300,0,0.500,0,1.000,0,5.000,0
"05/06/08","09:10:22",18.000,"cc",28097.578,6,0.100,15.000,0.200,3.000,0.300,0,0.500,0,1.000,0,5.000,0
"05/06/08","09:10:28",14.000,"cc",28101.938,6,0.100,13.000,0.200,1.000,0.300,0,0.500,0,1.000,0,5.000,0
"05/06/08","09:10:34",15.000,"cc",28001.307,6,0.100,13.000,0.200,2.000,0.300,0,0.500,0,1.000,0,5.000,0
"05/06/08","09:10:40",20.000,"cc",27978.201,6,0.100,17.000,0.200,2.000,0.300,1.000,0.500,0,1.000,0,5.000,0
"05/06/08","09:10:46",23.000,"cc",28059.656,6,0.100,20.000,0.200,3.000,0.300,0,0.500,0,1.000,0,5.000,0
"05/06/08","09:10:52",17.000,"cc",28040.973,6,0.100,14.000,0.200,3.000,0.300,0,0.500,0,1.000,0,5.000,0
"05/06/08","09:10:58",17.000,"cc",28039.986,6,0.100,16.000,0.200,0,0.300,1.000,0.500,0,1.000,0,5.000,0
"05/06/08","09:11:04",26.000,"cc",27970.190,6,0.100,23.000,0.200,3.000,0.300,0,0.500,0,1.000,0,5.000,0
"05/06/08","09:11:10",3207.000,"cc",27839.309,6,0.100,2577.000,0.200,377.000,0.300,151.000,0.500,65.000,1.000,26.000,5.000,11.000
"05/06/08","09:11:16",115.000,"cc",27852.242,6,0.100,89.000,0.200,18.000,0.300,7.000,0.500,0,1.000,1.000,5.000,0
"05/06/08","09:11:22",30.000,"cc",27233.090,6,0.100,23.000,0.200,5.000,0.300,1.000,0.500,1.000,1.000,0,5.000,0
"05/06/08","09:11:28",18.000,"cc",27340.236,6,0.100,15.000,0.200,3.000,0.300,0,0.500,0,1.000,0,5.000,0
"05/06/08","09:11:34",39.000,"cc",27922.629,6,0.100,19.000,0.200,6.000,0.300,4.000,0.500,1.000,1.000,9.000,5.000,0
"05/06/08","09:11:40",22.000,"cc",27970.756,6,0.100,16.000,0.200,4.000,0.300,2.000,0.500,0,1.000,0,5.000,0
"05/06/08","09:11:46",30.000,"cc",27897.232,6,0.100,28.000,0.200,2.000,0.300,0,0.500,0,1.000,0,5.000,0
"05/06/08","09:11:52",19.000,"cc",27901.283,6,0.100,18.000,0.200,1.000,0.300,0,0.500,0,1.000,0,5.000,0
"05/06/08","09:11:58",121.000,"cc",27885.803,6,0.100,55.000,0.200,14.000,0.300,5.000,0.500,7.000,1.000,40.000,5.000,0
"05/06/08","09:12:04",29.000,"cc",27848.168,6,0.100,22.000,0.200,5.000,0.300,1.000,0.500,1.000,1.000,0,5.000,0
"05/06/08","09:12:10",53.000,"cc",27850.162,6,0.100,26.000,0.200,6.000,0.300,7.000,0.500,4.000,1.000,10.000,5.000,0
"05/06/08","09:12:16",33.000,"cc",27937.078,6,0.100,23.000,0.200,6.000,0.300,0,0.500,0,1.000,4.000,5.000,0
"05/06/08","09:12:22",46.000,"cc",27988.285,6,0.100,25.000,0.200,4.000,0.300,1.000,0.500,4.000,1.000,12.000,5.000,0
"05/06/08","09:12:28",113.000,"cc",28097.645,6,0.100,96.000,0.200,10.000,0.300,5.000,0.500,0,1.000,1.000,5.000,1.000
"05/06/08","09:12:34",113.000,"cc",28110.250,6,0.100,97.000,0.200,8.000,0.300,2.000,0.500,1.000,1.000,4.000,5.000,1.000
"05/06/08","09:12:40",129.000,"cc",28021.068,6,0.100,66.000,0.200,13.000,0.300,10.000,0.500,8.000,1.000,32.000,5.000,0
"05/06/08","09:12:46",30.000,"cc",28137.426,6,0.100,20.000,0.200,5.000,0.300,0,0.500,0,1.000,5.000,5.000,0
"05/06/08","09:12:52",8254.000,"cc",27195.065,6,0.100,6056.000,0.200,1197.000,0.300,410.000,0.500,280.000,1.000,153.000,5.000,158.000
"05/06/08","09:12:58",873.000,"cc",26468.236,6,0.100,738.000,0.200,66.000,0.300,26.000,0.500,29.000,1.000,10.000,5.000,4.000
"05/06/08","09:13:04",303.000,"cc",26367.971,6,0.100,207.000,0.200,63.000,0.300,22.000,0.500,8.000,1.000,3.000,5.000,0
"05/06/08","09:13:10",64.000,"cc",26328.561,6,0.100,47.000,0.200,12.000,0.300,4.000,0.500,1.000,1.000,0,5.000,0
"05/06/08","09:13:16",32.000,"cc",26522.059,6,0.100,23.000,0.200,5.000,0.300,2.000,0.500,0,1.000,2.000,5.000,0
"05/06/08","09:13:22",27.000,"cc",26438.391,6,0.100,18.000,0.200,7.000,0.300,1.000,0.500,1.000,1.000,0,5.000,0
"05/06/08","09:13:28",42.000,"cc",26430.643,6,0.100,31.000,0.200,7.000,0.300,2.000,0.500,1.000,1.000,1.000,5.000,0
"05/06/08","09:13:34",30.000,"cc",26412.996,6,0.100,25.000,0.200,5.000,0.300,0,0.500,0,1.000,0,5.000,0
"05/06/08","09:13:40",101.000,"cc",26333.621,6,0.100,46.000,0.200,11.000,0.300,7.000,0.500,6.000,1.000,29.000,5.000,2.000
"05/06/08","09:13:46",20.000,"cc",26399.662,6,0.100,17.000,0.200,3.000,0.300,0,0.500,0,1.000,0,5.000,0
"05/06/08","09:13:52",24.000,"cc",26377.789,6,0.100,20.000,0.200,4.000,0.300,0,0.500,0,1.000,0,5.000,0
"05/06/08","09:13:58",19.000,"cc",26499.938,6,0.100,18.000,0.200,1.000,0.300,0,0.500,0,1.000,0,5.000,0
"05/06/08","09:14:04",25.000,"cc",26955.453,6,0.100,20.000,0.200,4.000,0.300,0,0.500,0,1.000,1.000,5.000,0
"05/06/08","09:14:10",30.000,"cc",27320.338,6,0.100,26.000,0.200,3.000,0.300,0,0.500,0,1.000,1.000,5.000,0
"05/06/08","09:14:16",27.000,"cc",27803.473,6,0.100,24.000,0.200,3.000,0.300,0,0.500,0,1.000,0,5.000,0
"05/06/08","09:14:22",19.000,"cc",28084.289,6,0.100,15.000,0.200,4.000,0.300,0,0.500,0,1.000,0,5.000,0
"05/06/08","09:14:28",16.000,"cc",28175.078,6,0.100,12.000,0.200,3.000,0.300,1.000,0.500,0,1.000,0,5.000,0
"05/06/08","09:14:34",26.000,"cc",28162.797,6,0.100,24.000,0.200,2.000,0.300,0,0.500,0,1.000,0,5.000,0
"05/06/08","09:14:40",21.000,"cc",28183.162,6,0.100,19.000,0.200,2.000,0.300,0,0.500,0,1.000,0,5.000,0
"05/06/08","09:14:46",20.000,"cc",28043.344,6,0.100,18.000,0.200,1.000,0.300,0,0.500,1.000,1.000,0,5.000,0
"05/06/08","09:14:52",17.000,"cc",28051.092,6,0.100,14.000,0.200,3.000,0.300,0,0.500,0,1.000,0,5.000,0
"05/06/08","09:14:58",24.000,"cc",28127.881,6,0.100,17.000,0.200,7.000,0.300,0,0.500,0,1.000,0,5.000,0
"05/06/08","09:15:04",26.000,"cc",28150.043,6,0.100,18.000,0.200,8.000,0.300,0,0.500,0,1.000,0,5.000,0
"05/06/08","09:15:10",22.000,"cc",28086.654,6,0.100,19.000,0.200,3.000,0.300,0,0.500,0,1.000,0,5.000,0
"05/06/08","09:15:16",12.000,"cc",28145.533,6,0.100,11.000,0.200,1.000,0.300,0,0.500,0,1.000,0,5.000,0
"05/06/08","09:15:22",25.000,"cc",28104.838,6,0.100,22.000,0.200,3.000,0.300,0,0.500,0,1.000,0,5.000,0
"05/06/08","09:15:28",14.000,"cc",28034.752,6,0.100,12.000,0.200,2.000,0.300,0,0.500,0,1.000,0,5.000,0
"05/06/08","09:15:34",21.000,"cc",28095.221,6,0.100,18.000,0.200,3.000,0.300,0,0.500,0,1.000,0,5.000,0
"05/06/08","09:15:40",24.000,"cc",27956.809,6,0.100,20.000,0.200,4.000,0.300,0,0.500,0,1.000,0,5.000,0
"05/06/08","09:15:46",32.000,"cc",28132.119,6,0.100,26.000,0.200,5.000,0.300,1.000,0.500,0,1.000,0,5.000,0
"05/06/08","09:15:52",24.000,"cc",28021.217,6,0.100,17.000,0.200,7.000,0.300,0,0.500,0,1.000,0,5.000,0
"05/06/08","09:15:58",22.000,"cc",28072.652,6,0.100,18.000,0.200,4.000,0.300,0,0.500,0,1.000,0,5.000,0
"05/06/08","09:16:04",19.000,"cc",28104.678,6,0.100,17.000,0.200,1.000,0.300,1.000,0.500,0,1.000,0,5.000,0
"05/06/08","09:16:10",24.000,"cc",28086.373,6,0.100,17.000,0.200,7.000,0.300,0,0.500,0,1.000,0,5.000,0
"05/06/08","09:16:16",29.000,"cc",28111.385,6,0.100,25.000,0.200,4.000,0.300,0,0.500,0,1.000,0,5.000,0
"05/06/08","09:16:22",14.000,"cc",28076.430,6,0.100,12.000,0.200,2.000,0.300,0,0.500,0,1.000,0,5.000,0
"05/06/08","09:16:28",19.000,"cc",28164.645,6,0.100,15.000,0.200,4.000,0.300,0,0.500,0,1.000,0,5.000,0
"05/06/08","09:16:34",25.000,"cc",28112.666,6,0.100,23.000,0.200,2.000,0.300,0,0.500,0,1.000,0,5.000,0
"05/06/08","09:16:40",23.000,"cc",28124.352,6,0.100,20.000,0.200,3.000,0.300,0,0.500,0,1.000,0,5.000,0
"05/06/08","09:16:46",15.000,"cc",28057.836,6,0.100,14.000,0.200,1.000,0.300,0,0.500,0,1.000,0,5.000,0
"05/06/08","09:16:52",18.000,"cc",28110.164,6,0.100,14.000,0.200,4.000,0.300,0,0.500,0,1.000,0,5.000,0
"05/06/08","09:16:58",18.000,"cc",28160.586,6,0.100,13.000,0.200,5.000,0.300,0,0.500,0,1.000,0,5.000,0
"05/06/08","09:17:04",23.000,"cc",28121.717,6,0.100,20.000,0.200,3.000,0.300,0,0.500,0,1.000,0,5.000,0
"05/06/08","09:17:10",29.000,"cc",28004.225,6,0.100,23.000,0.200,5.000,0.300,1.000,0.500,0,1.000,0,5.000,0
"05/06/08","09:17:16",4111.000,"cc",27891.781,6,0.100,3243.000,0.200,527.000,0.300,138.000,0.500,142.000,1.000,45.000,5.000,16.000
"05/06/08","09:17:22",1721.000,"cc",26108.537,6,0.100,1115.000,0.200,348.000,0.300,135.000,0.500,100.000,1.000,22.000,5.000,1.000
"05/06/08","09:17:28",150.000,"cc",26450.658,6,0.100,97.000,0.200,28.000,0.300,11.000,0.500,10.000,1.000,4.000,5.000,0
"05/06/08","09:17:34",65.000,"cc",26588.920,6,0.100,54.000,0.200,7.000,0.300,0,0.500,3.000,1.000,1.000,5.000,0
"05/06/08","09:17:40",36.000,"cc",26557.406,6,0.100,28.000,0.200,5.000,0.300,0,0.500,2.000,1.000,1.000,5.000,0
"05/06/08","09:17:46",32.000,"cc",26546.834,6,0.100,24.000,0.200,4.000,0.300,3.000,0.500,0,1.000,1.000,5.000,0
"05/06/08","09:17:52",24.000,"cc",26531.975,6,0.100,18.000,0.200,5.000,0.300,0,0.500,0,1.000,0,5.000,1.000
"05/06/08","09:17:58",23.000,"cc",26515.084,6,0.100,18.000,0.200,4.000,0.300,0,0.500,1.000,1.000,0,5.000,0
"05/06/08","09:18:04",22.000,"cc",26402.303,6,0.100,18.000,0.200,3.000,0.300,1.000,0.500,0,1.000,0,5.000,0
"05/06/08","09:18:10",31.000,"cc",26475.709,6,0.100,28.000,0.200,2.000,0.300,1.000,0.500,0,1.000,0,5.000,0
"05/06/08","09:18:16",45.000,"cc",26524.328,6,0.100,34.000,0.200,6.000,0.300,2.000,0.500,2.000,1.000,1.000,5.000,0
"05/06/08","09:18:22",16.000,"cc",26724.107,6,0.100,15.000,0.200,1.000,0.300,0,0.500,0,1.000,0,5.000,0
"05/06/08","09:18:28",24.000,"cc",26759.490,6,0.100,23.000,0.200,1.000,0.300,0,0.500,0,1.000,0,5.000,0
"05/06/08","09:18:34",19.000,"cc",27026.186,6,0.100,18.000,0.200,1.000,0.300,0,0.500,0,1.000,0,5.000,0
"05/06/08","09:18:39",20.000,"cc",26252.441,6,0.100,17.000,0.200,3.000,0.300,0,0.500,0,1.000,0,5.000,0
"05/06/08","09:20:15",17.000,"cc",27907.277,6,0.100,16.000,0.200,1.000,0.300,0,0.500,0,1.000,0,5.000,0
"05/06/08","09:20:21",19.000,"cc",28053.953,6,0.100,16.000,0.200,3.000,0.300,0,0.500,0,1.000,0,5.000,0
"05/06/08","09:20:27",18.000,"cc",28259.773,6,0.100,17.000,0.200,1.000,0.300,0,0.500,0,1.000,0,5.000,0
"05/06/08","09:20:33",18.000,"cc",28301.080,6,0.100,13.000,0.200,5.000,0.300,0,0.500,0,1.000,0,5.000,0
"05/06/08","09:20:39",17.000,"cc",28301.680,6,0.100,16.000,0.200,1.000,0.300,0,0.500,0,1.000,0,5.000,0
"05/06/08","09:20:45",15.000,"cc",28280.273,6,0.100,15.000,0.200,0,0.300,0,0.500,0,1.000,0,5.000,0
"05/06/08","09:20:51",18.000,"cc",28325.662,6,0.100,16.000,0.200,2.000,0.300,0,0.500,0,1.000,0,5.000,0
"05/06/08","09:20:57",25.000,"cc",28387.027,6,0.100,23.000,0.200,2.000,0.300,0,0.500,0,1.000,0,5.000,0
"05/06/08","09:21:03",21.000,"cc",28298.434,6,0.100,19.000,0.200,2.000,0.300,0,0.500,0,1.000,0,5.000,0
"05/06/08","09:21:09",20.000,"cc",28252.488,6,0.100,17.000,0.200,1.000,0.300,1.000,0.500,1.000,1.000,0,5.000,0
"05/06/08","09:21:15",19.000,"cc",28194.932,6,0.100,17.000,0.200,2.000,0.300,0,0.500,0,1.000,0,5.000,0
"05/06/08","09:21:21",19.000,"cc",28141.529,6,0.100,13.000,0.200,6.000,0.300,0,0.500,0,1.000,0,5.000,0
"05/06/08","09:21:27",23.000,"cc",28179.615,6,0.100,21.000,0.200,2.000,0.300,0,0.500,0,1.000,0,5.000,0
"05/06/08","09:21:33",17.000,"cc",28199.617,6,0.100,12.000,0.200,5.000,0.300,0,0.500,0,1.000,0,5.000,0
"05/06/08","09:21:39",22.000,"cc",28146.100,6,0.100,17.000,0.200,5.000,0.300,0,0.500,0,1.000,0,5.000,0
"05/06/08","09:21:45",23.000,"cc",28263.617,6,0.100,23.000,0.200,0,0.300,0,0.500,0,1.000,0,5.000,0
"05/06/08","09:21:51",25.000,"cc",28205.170,6,0.100,21.000,0.200,4.000,0.300,0,0.500,0,1.000,0,5.000,0
"05/06/08","09:21:57",18.000,"cc",28227.145,6,0.100,18.000,0.200,0,0.300,0,0.500,0,1.000,0,5.000,0
"05/06/08","09:22:03",25.000,"cc",28352.801,6,0.100,22.000,0.200,3.000,0.300,0,0.500,0,1.000,0,5.000,0
"05/06/08","09:22:09",18.000,"cc",28238.965,6,0.100,17.000,0.200,1.000,0.300,0,0.500,0,1.000,0,5.000,0
"05/06/08","09:22:15",20.000,"cc",28210.508,6,0.100,16.000,0.200,4.000,0.300,0,0.500,0,1.000,0,5.000,0
"05/06/08","09:22:21",15.000,"cc",28207.799,6,0.100,13.000,0.200,2.000,0.300,0,0.500,0,1.000,0,5.000,0
"05/06/08","09:22:27",16.000,"cc",28176.908,6,0.100,12.000,0.200,4.000,0.300,0,0.500,0,1.000,0,5.000,0